Flag for Sudan Weather past 2 weeks in Kassala, Sudan

Now
100 °F

Sunny.


Feels Like: 95 °F
Forecast: 86 / 100 °F
Wind: 12 mph from North

Location: Khartoum Airport

Current Time: Oct 21, 2014 at 5:32:35 PM

Latest Report: Oct 21, 2014 at 5:00 PM


Visibility: 10 mi

Pressure: 29.80 "Hg

Humidity: 11%

Dew point: 37 °F

Location of KassalaLocation

Historic Weather in Kassala — Graph

°F

Kassala temperature yesterday

Maximum temperature yesterday: 102 °F (at 2:00 PM)
Minimum temperature yesterday: 84 °F (at 8:00 AM)
Average temperature yesterday: 95 °F

Past Weeks' High & Low Weather Summary

 TemperatureHumidityPressure
High122 °F (Oct 12, 4:30 PM)74% (Oct 9, 8:00 PM)30.17 "Hg (Oct 9, 8:00 PM)
Low77 °F (Oct 17, 7:00 AM)6% (Oct 16, 6:00 PM)29.68 "Hg (Oct 8, 5:30 PM)
Average90 °F31%29.85 "Hg
* Reported Oct 6 4:00 PM — Oct 21 4:30 PM, Kassala, Weather by CustomWeather, © 2014

Note: Actual official high and low records may vary slightly from our data, if they occured in-between our weather recording intervals... More about our weather records

Advertising

Kassala weather history for previous 24 hours

 ConditionsComfort  
Time TempWeatherWind HumidityBarometerVisibility
4:30 PM
Oct 21
N/ASunny.12 mphN/A29.80 "Hg10 mi
4:00 PM100 °FSunny.12 mph11%29.80 "Hg10 mi
3:30 PMN/ASunny.12 mphN/A29.83 "Hg10 mi
3:00 PM100 °FSunny.6 mph13%29.83 "Hg10 mi
2:30 PMN/ASunny.12 mphN/A29.83 "Hg10 mi
2:00 PM99 °FSunny.9 mph13%29.83 "Hg10 mi
9:00 AM84 °FSunny.5 mph22%29.95 "Hg10 mi
8:30 AMN/ASunny.5 mphN/A29.95 "Hg10 mi
8:00 AM82 °FSunny.5 mph23%29.95 "Hg10 mi
7:30 AMN/ASunny.5 mphN/A29.92 "Hg10 mi
7:00 AM79 °FSunny.5 mph26%29.92 "Hg10 mi
6:00 AM81 °FClear.5 mph28%29.89 "Hg10 mi
5:30 AMN/AClear.3 mphN/A29.86 "Hg10 mi
5:00 AM84 °FClear.3 mph20%29.86 "Hg10 mi
4:30 AMN/AClear.5 mphN/A29.86 "Hg10 mi
4:00 AM84 °FClear.6 mph20%29.83 "Hg10 mi
3:30 AMN/AClear.13 mphN/A29.83 "Hg10 mi
3:00 AM86 °FClear.12 mph18%29.83 "Hg10 mi
2:30 AMN/AClear.12 mphN/A29.83 "Hg10 mi
2:00 AM86 °FClear.12 mph18%29.83 "Hg10 mi
1:30 AMN/AClear.12 mphN/A29.83 "Hg10 mi
1:00 AM90 °FClear.8 mph17%29.83 "Hg10 mi
12:30 AMN/AClear.9 mphN/A29.83 "Hg10 mi
9:00 PM
Oct 20
93 °FClear.3 mph20%29.86 "Hg10 mi
8:30 PMN/AClear.3 mphN/A29.83 "Hg10 mi
8:00 PM95 °FClear.3 mph18%29.83 "Hg10 mi
7:30 PMN/AClear.3 mphN/A29.80 "Hg10 mi
7:00 PM99 °FClear.3 mph12%29.80 "Hg10 mi
6:30 PMN/AClear.8 mphN/A29.77 "Hg10 mi
6:00 PM102 °FSunny.7 mph12%29.77 "Hg10 mi
5:30 PMN/ASunny.8 mphN/A29.77 "Hg10 mi
5:00 PM102 °FSunny.8 mph12%29.77 "Hg10 mi
Weather by CustomWeather, © 2014

See weather overviewHow to use our weather pages